Location: Sweet Grass
(48.9965°N, 111.9649°W)
Time: 07:41:51
(UTC+00:00)

N. Korean satellite - Pass Details

Date: 03 December 2022
Orbit: 407 x 442 km, 97.3° (Epoch: 04 February)

Event Time Altitude Azimuth Distance (km) Brightness Sun altitude
Rises 13:28:52 0° 5° (N) 2,525 10.1 -14.8°
Reaches altitude 10° 13:31:03 10° 356° (N) 1,639 9.0 -14.4°
Maximum altitude 13:34:16 34° 290° (WNW) 782 7.0 -13.9°
Drops below altitude 10° 13:37:26 10° 224° (SW) 1,608 8.9 -13.4°
Sets 13:39:34 0° 215° (SW) 2,469 10.0 -13.1°
